Location: DarkSkies Observatory
(42.5924°N, 71.9747°W)
Time: 21:04:40
(UTC-05:00)

Tiangong 2 - Visible Passes

Search period start: 19 February 2018 00:00
Search period end: 01 March 2018 00:00
Orbit: 384 x 388 km, 42.8° (Epoch: 19 February)

Date Brightness Start Highest point End Pass type
(mag) Time Alt. Az. Time Alt. Az. Time Alt. Az.
19 Feb 2.6 19:23:02 10° W 19:25:22 32° SW 19:25:22 32° SW visible
20 Feb 1.6 18:24:00 10° W 18:27:07 54° SSW 18:29:24 17° ESE visible
21 Feb 3.1 19:02:07 10° W 19:04:42 23° SSW 19:05:47 19° S visible
22 Feb 2.5 18:02:55 10° W 18:05:52 35° SSW 18:08:48 10° SE visible
23 Feb 3.9 18:41:35 10° WSW 18:43:17 14° SSW 18:45:00 10° S visible
